Location: Callao
(39.8979°N, 113.7141°W)
Time: 14:06:39
(UTC+00:00)

X-37B - Pass Details

Date: 10 March 2021
Orbit: 380 x 394 km, 45.0° (Epoch: 07 April)

Event Time Altitude Azimuth Distance (km) Brightness Sun altitude
Rises 03:14:36 0° 221° (SW) 2,260 4.9 -19.7°
Reaches altitude 10° 03:16:47 10° 210° (SSW) 1,412 3.6 -20.1°
Enters shadow 03:17:56 18° 197° (SSW) 1,018 2.7 -20.3°
